Time,TemperatureF,DewpointF,PressureIn,WindDirection,WindDirectionDegrees,WindSpeedMPH,WindSpeedGustMPH,Humidity,HourlyPrecipIn,Conditions,Clouds,dailyrainin,SoftwareType,DateUTC
2013-06-10 06:00:00,72.0,71.0,29.96,SW,225,0.0,1.0,96,0.00,,,0.00,,2013-06-10 10:00:00,
2013-06-10 06:23:00,72.0,71.0,29.96,SW,225,0.0,1.0,96,0.00,,,0.00,,2013-06-10 10:23:00,
2013-06-10 06:33:00,72.0,71.0,29.96,SW,225,0.0,1.0,96,0.00,,,0.00,,2013-06-10 10:33:00,
2013-06-10 06:42:00,72.0,71.0,29.96,SW,225,0.0,1.0,96,0.00,,,0.00,,2013-06-10 10:42:00,
2013-06-10 06:52:00,72.0,71.0,29.96,SW,225,0.0,1.0,96,0.00,,,0.00,,2013-06-10 10:52:00,
2013-06-10 07:00:00,72.0,71.0,29.96,South,180,0.0,2.0,96,0.00,,,0.00,,2013-06-10 11:00:00,
2013-06-10 07:22:00,72.0,71.0,29.96,South,180,0.0,2.0,96,0.00,,,0.00,,2013-06-10 11:22:00,
2013-06-10 07:32:00,72.0,71.0,29.96,South,180,0.0,2.0,96,0.00,,,0.00,,2013-06-10 11:32:00,
2013-06-10 07:42:00,72.0,71.0,29.96,South,180,0.0,2.0,96,0.00,,,0.00,,2013-06-10 11:42:00,
2013-06-10 07:52:00,72.0,71.0,29.96,South,180,0.0,2.0,96,0.00,,,0.00,,2013-06-10 11:52:00,
2013-06-10 12:00:00,72.0,70.0,29.94,SSE,157,0.0,2.0,95,0.66,,,0.68,,2013-06-10 16:00:00,
2013-06-10 12:13:00,72.0,70.0,29.94,SSE,157,0.0,2.0,95,0.66,,,0.68,,2013-06-10 16:13:00,
2013-06-10 12:23:00,72.0,70.0,29.94,SSE,157,0.0,2.0,95,0.66,,,0.68,,2013-06-10 16:23:00,
2013-06-10 12:33:00,72.0,70.0,29.94,SSE,157,0.0,2.0,95,0.66,,,0.68,,2013-06-10 16:33:00,
2013-06-10 12:43:00,72.0,70.0,29.94,SSE,157,0.0,2.0,95,0.66,,,0.68,,2013-06-10 16:43:00,
2013-06-10 12:53:00,72.0,70.0,29.94,SSE,157,0.0,2.0,95,0.66,,,0.68,,2013-06-10 16:53:00,
2013-06-10 13:00:00,76.0,74.0,29.91,SSW,202,0.0,2.0,95,0.00,,,0.68,,2013-06-10 17:00:00,
2013-06-10 13:14:00,76.0,74.0,29.91,SSW,202,0.0,2.0,95,0.00,,,0.68,,2013-06-10 17:14:00,
2013-06-10 13:27:00,76.0,74.0,29.91,SSW,202,0.0,2.0,95,0.00,,,0.68,,2013-06-10 17:27:00,
2013-06-10 13:38:00,76.0,74.0,29.91,SSW,202,0.0,2.0,95,0.00,,,0.68,,2013-06-10 17:38:00,
2013-06-10 13:48:00,76.0,74.0,29.91,SSW,202,0.0,2.0,95,0.00,,,0.68,,2013-06-10 17:48:00,
2013-06-10 13:58:00,76.0,74.0,29.91,SSW,202,0.0,2.0,95,0.00,,,0.68,,2013-06-10 17:58:00,
2013-06-10 14:00:00,75.0,72.0,29.88,SW,225,0.0,5.0,91,0.15,,,0.83,,2013-06-10 18:00:00,
2013-06-10 14:25:00,75.0,72.0,29.88,SW,225,0.0,5.0,91,0.15,,,0.83,,2013-06-10 18:25:00,
2013-06-10 14:35:00,75.0,72.0,29.88,SW,225,0.0,5.0,91,0.15,,,0.83,,2013-06-10 18:35:00,
2013-06-10 14:48:00,75.0,72.0,29.88,SW,225,0.0,5.0,91,0.15,,,0.83,,2013-06-10 18:48:00,
2013-06-10 14:55:00,75.0,72.0,29.88,SW,225,0.0,5.0,91,0.15,,,0.83,,2013-06-10 18:55:00,
2013-06-10 15:00:00,80.0,76.0,29.85,SSE,157,1.0,3.0,88,0.01,,,0.84,,2013-06-10 19:00:00,
2013-06-10 15:23:00,80.0,76.0,29.85,SSE,157,1.0,3.0,88,0.01,,,0.84,,2013-06-10 19:23:00,
2013-06-10 15:33:00,80.0,76.0,29.85,SSE,157,1.0,3.0,88,0.01,,,0.84,,2013-06-10 19:33:00,
2013-06-10 15:43:00,80.0,76.0,29.85,SSE,157,1.0,3.0,88,0.01,,,0.84,,2013-06-10 19:43:00,
2013-06-10 15:53:00,80.0,76.0,29.85,SSE,157,1.0,3.0,88,0.01,,,0.84,,2013-06-10 19:53:00,
2013-06-10 16:00:00,79.0,75.0,29.83,South,180,0.0,3.0,89,0.02,,,0.86,,2013-06-10 20:00:00,
2013-06-10 16:23:00,79.0,75.0,29.83,South,180,0.0,3.0,89,0.02,,,0.86,,2013-06-10 20:23:00,
2013-06-10 16:32:00,79.0,75.0,29.83,South,180,0.0,3.0,89,0.02,,,0.86,,2013-06-10 20:32:00,
2013-06-10 16:43:00,79.0,75.0,29.83,South,180,0.0,3.0,89,0.02,,,0.86,,2013-06-10 20:43:00,
2013-06-10 16:53:00,79.0,75.0,29.83,South,180,0.0,3.0,89,0.02,,,0.86,,2013-06-10 20:53:00,
2013-06-10 18:00:00,73.0,71.0,29.82,South,180,0.0,2.0,93,0.00,,,0.86,,2013-06-10 22:00:00,
2013-06-10 18:23:00,73.0,71.0,29.82,South,180,0.0,2.0,93,0.00,,,0.86,,2013-06-10 22:23:00,
2013-06-10 18:33:00,73.0,71.0,29.82,South,180,0.0,2.0,93,0.00,,,0.86,,2013-06-10 22:33:00,
2013-06-10 18:42:00,73.0,71.0,29.82,South,180,0.0,2.0,93,0.00,,,0.86,,2013-06-10 22:42:00,
2013-06-10 18:52:00,73.0,71.0,29.82,South,180,0.0,2.0,93,0.00,,,0.86,,2013-06-10 22:52:00,
2013-06-10 20:00:00,74.0,71.0,29.84,South,180,1.0,4.0,90,0.00,,,0.86,,2013-06-11 00:00:00,
2013-06-10 20:13:00,74.0,71.0,29.84,South,180,1.0,4.0,90,0.00,,,0.86,,2013-06-11 00:13:00,
2013-06-10 20:22:00,74.0,71.0,29.84,South,180,1.0,4.0,90,0.00,,,0.86,,2013-06-11 00:22:00,
2013-06-10 20:32:00,74.0,71.0,29.84,South,180,1.0,4.0,90,0.00,,,0.86,,2013-06-11 00:32:00,
2013-06-10 20:43:00,74.0,71.0,29.84,South,180,1.0,4.0,90,0.00,,,0.86,,2013-06-11 00:43:00,
2013-06-10 20:52:00,74.0,71.0,29.84,South,180,1.0,4.0,90,0.00,,,0.86,,2013-06-11 00:52:00,
2013-06-10 22:00:00,72.0,70.0,29.85,South,180,1.0,3.0,93,0.00,,,0.86,,2013-06-11 02:00:00,
2013-06-10 22:12:00,72.0,70.0,29.85,South,180,1.0,3.0,93,0.00,,,0.86,,2013-06-11 02:12:00,
2013-06-10 22:22:00,72.0,70.0,29.85,South,180,1.0,3.0,93,0.00,,,0.86,,2013-06-11 02:22:00,
2013-06-10 22:32:00,72.0,70.0,29.85,South,180,1.0,3.0,93,0.00,,,0.86,,2013-06-11 02:32:00,
2013-06-10 22:43:00,72.0,70.0,29.85,South,180,1.0,3.0,93,0.00,,,0.86,,2013-06-11 02:43:00,
2013-06-10 22:52:00,72.0,70.0,29.85,South,180,1.0,3.0,93,0.00,,,0.86,,2013-06-11 02:52:00,